| time (UTC) | temp F | wind direction | speed knots | gust knots | rain 1hr in | rain 24hr in | rain mn in | humidity % | barometer mb |
| 20260502121204 | 52 | 322 | 1.7 | 4.3 | 0.00 | 0.00 | 0.00 | 89 | 1012.5 |
| 20260502120703 | 53 | 0 | 2.6 | 6.1 | 0.00 | 0.00 | 0.00 | 89 | 1012.3 |
| 20260502120204 | 55 | 314 | 1.7 | 2.6 | 0.00 | 0.00 | 0.00 | 88 | 1012.5 |
| 20260502113703 | 55 | 304 | 1.7 | 2.6 | 0.00 | 0.00 | 0.00 | 87 | 1012.5 |
| 20260502112703 | 56 | 297 | 0.9 | 2.6 | 0.00 | 0.00 | 0.00 | 87 | 1012.4 |
| 20260502111704 | 57 | 320 | 1.7 | 4.3 | 0.00 | 0.00 | 0.00 | 86 | 1012.3 |
| 20260502111204 | 58 | 277 | 2.6 | 6.1 | 0.00 | 0.00 | 0.00 | 86 | 1012.2 |
| 20260502110704 | 57 | 281 | 0.9 | 4.3 | 0.00 | 0.00 | 0.00 | 86 | 1012.3 |
| 20260502110204 | 58 | 48 | 1.7 | 2.6 | 0.00 | 0.00 | 0.00 | 86 | 1012.4 |
| 20260502105703 | 57 | 146 | 2.6 | 5.2 | 0.00 | 0.00 | 0.00 | 87 | 1012.4 |
| 20260502105204 | 57 | 56 | 2.6 | 6.1 | 0.00 | 0.00 | 0.00 | 88 | 1012.4 |
| 20260502104704 | 56 | 76 | 1.7 | 5.2 | 0.00 | 0.00 | 0.00 | 89 | 1012.4 |
| 20260502104203 | 55 | 109 | 0.9 | 2.6 | 0.00 | 0.00 | 0.00 | 89 | 1012.4 |
| 20260502103703 | 55 | 149 | 0.9 | 2.6 | 0.00 | 0.00 | 0.00 | 89 | 1012.4 |
| 20260502103203 | 55 | 84 | 0.9 | 2.6 | 0.00 | 0.00 | 0.00 | 90 | 1012.5 |
| 20260502102703 | 55 | 223 | 0.9 | 2.6 | 0.00 | 0.00 | 0.00 | 91 | 1012.6 |
| 20260502102204 | 55 | 202 | 1.7 | 2.6 | 0.00 | 0.00 | 0.00 | 91 | 1012.7 |
| 20260502101705 | 55 | 149 | 2.6 | 6.1 | 0.00 | 0.00 | 0.00 | 91 | 1012.8 |
| 20260502101204 | 54 | 195 | 1.7 | 5.2 | 0.00 | 0.00 | 0.00 | 92 | 1012.7 |
| 20260502100203 | 54 | 162 | 1.7 | 5.2 | 0.00 | 0.00 | 0.00 | 92 | 1012.8 |
| 20260502091204 | 53 | 204 | 1.7 | 4.3 | 0.00 | 0.00 | 0.00 | 94 | 1013.0 |
| 20260502090705 | 52 | 121 | 0.9 | 2.6 | 0.00 | 0.00 | 0.00 | 95 | 1013.1 |
| 20260502090203 | 52 | 60 | 0.9 | 2.6 | 0.00 | 0.00 | 0.00 | 95 | 1013.2 |
| 20260502071203 | 50 | 93 | 0.0 | 0.0 | 0.00 | 0.00 | 0.00 | 96 | 1013.1 |
| 20260502070704 | 50 | 93 | 0.0 | 0.0 | 0.00 | 0.00 | 0.00 | 95 | 1013.1 |
| 20260502070204 | 50 | 93 | 0.0 | 0.0 | 0.00 | 0.00 | 0.00 | 95 | 1013.0 |
| 20260502065704 | 50 | 93 | 0.0 | 0.0 | 0.00 | 0.00 | 0.00 | 96 | 1013.1 |
| 20260502064703 | 49 | 93 | 0.0 | 0.0 | 0.00 | 0.00 | 0.00 | 95 | 1013.1 |
| 20260502064204 | 49 | 93 | 0.0 | 0.0 | 0.00 | 0.00 | 0.00 | 95 | 1013.0 |
| 20260502063704 | 49 | 93 | 0.0 | 0.0 | 0.00 | 0.00 | 0.00 | 95 | 1013.1 |
| 20260502063203 | 48 | 93 | 0.0 | 0.0 | 0.00 | 0.00 | 0.00 | 95 | 1013.1 |
| 20260502062703 | 48 | 93 | 0.0 | 0.0 | 0.00 | 0.00 | 0.00 | 95 | 1013.1 |
| 20260502062204 | 47 | 93 | 0.0 | 0.0 | 0.00 | 0.00 | 0.00 | 95 | 1013.2 |
| 20260502061203 | 47 | 93 | 0.0 | 0.0 | 0.00 | 0.00 | 0.00 | 95 | 1013.2 |
| 20260502060703 | 46 | 93 | 0.0 | 0.0 | 0.00 | 0.00 | 0.00 | 95 | 1013.2 |
| 20260502055703 | 46 | 93 | 0.0 | 1.7 | 0.00 | 0.00 | 0.00 | 95 | 1013.2 |
| 20260502055203 | 46 | 93 | 0.9 | 1.7 | 0.00 | 0.00 | 0.00 | 95 | 1013.2 |
| 20260502054703 | 45 | 93 | 0.9 | 1.7 | 0.00 | 0.00 | 0.00 | 95 | 1013.3 |
| 20260502054203 | 45 | 93 | 0.9 | 1.7 | 0.00 | 0.00 | 0.00 | 95 | 1013.3 |
| 20260502053703 | 45 | 93 | 0.0 | 1.7 | 0.00 | 0.00 | 0.00 | 95 | 1013.4 |
| 20260502053203 | 45 | 93 | 0.9 | 1.7 | 0.00 | 0.00 | 0.00 | 95 | 1013.3 |
| 20260502052704 | 44 | 93 | 0.0 | 0.9 | 0.00 | 0.00 | 0.00 | 95 | 1013.4 |
| 20260502051704 | 44 | 93 | 0.0 | 0.9 | 0.00 | 0.00 | 0.00 | 95 | 1013.6 |
| 20260502051204 | 44 | 93 | 0.9 | 1.7 | 0.00 | 0.00 | 0.00 | 94 | 1013.5 |
| 20260502050703 | 44 | 93 | 0.9 | 1.7 | 0.00 | 0.00 | 0.00 | 95 | 1013.6 |
| 20260502045703 | 44 | 124 | 1.7 | 2.6 | 0.00 | 0.00 | 0.00 | 95 | 1013.6 |
| 20260502045203 | 43 | 95 | 1.7 | 1.7 | 0.00 | 0.00 | 0.00 | 95 | 1013.5 |
| 20260502044704 | 43 | 82 | 0.9 | 1.7 | 0.00 | 0.00 | 0.00 | 94 | 1013.6 |
| 20260502044203 | 43 | 82 | 1.7 | 1.7 | 0.00 | 0.00 | 0.00 | 94 | 1013.7 |
| 20260502043703 | 43 | 82 | 1.7 | 2.6 | 0.00 | 0.00 | 0.00 | 94 | 1013.5 |
| 20260502043203 | 42 | 79 | 1.7 | 2.6 | 0.00 | 0.00 | 0.00 | 94 | 1013.5 |
| 20260502042703 | 42 | 76 | 0.0 | 0.0 | 0.00 | 0.00 | 0.00 | 94 | 1013.6 |
| 20260502042204 | 42 | 76 | 0.0 | 0.0 | 0.00 | 0.00 | 0.00 | 94 | 1013.7 |
| 20260502041704 | 43 | 76 | 0.0 | 0.0 | 0.00 | 0.00 | 0.00 | 94 | 1013.7 |
| 20260502040703 | 43 | 76 | 0.0 | 0.0 | 0.00 | 0.00 | 0.00 | 94 | 1013.6 |
| 20260502040203 | 43 | 76 | 0.0 | 0.0 | 0.00 | 0.00 | 0.00 | 94 | 1013.6 |
| 20260502035703 | 43 | 76 | 0.0 | 0.0 | 0.00 | 0.00 | 0.00 | 94 | 1013.7 |
| 20260502035204 | 44 | 76 | 0.0 | 0.9 | 0.00 | 0.00 | 0.00 | 94 | 1013.7 |
| 20260502034705 | 44 | 76 | 0.9 | 0.9 | 0.00 | 0.00 | 0.00 | 94 | 1013.7 |
| 20260502034204 | 44 | 76 | 0.9 | 1.7 | 0.00 | 0.00 | 0.00 | 94 | 1013.6 |
| 20260502033703 | 44 | 76 | 0.9 | 0.9 | 0.00 | 0.00 | 0.00 | 94 | 1013.8 |
| 20260502032703 | 44 | 76 | 0.0 | 0.0 | 0.00 | 0.00 | 0.00 | 94 | 1014.0 |
| 20260502031703 | 44 | 76 | 0.9 | 1.7 | 0.00 | 0.00 | 0.00 | 94 | 1014.0 |
| 20260502030704 | 44 | 76 | 0.0 | 1.7 | 0.00 | 0.00 | 0.00 | 94 | 1014.0 |
| 20260502030203 | 44 | 76 | 0.9 | 1.7 | 0.00 | 0.00 | 0.00 | 94 | 1014.0 |
| 20260502025703 | 44 | 76 | 1.7 | 2.6 | 0.00 | 0.00 | 0.00 | 93 | 1014.0 |
| 20260502024703 | 46 | 76 | 0.0 | 0.0 | 0.00 | 0.00 | 0.00 | 94 | 1014.1 |
| 20260502024204 | 45 | 76 | 0.0 | 0.0 | 0.00 | 0.00 | 0.00 | 94 | 1014.1 |